VE2JOS Weather Reports


time (UTC)temp
C
wind
direction
speed
KPH
gust
KPH
rain 1hr
cm
rain 24hr
cm
rain mn
cm
humidity
%
barometer
mb
20260505060522 8 0.0 0.0 0.00 0.74 0.00 99
20260505055522 8 0.0 0.0 0.00 0.74 0.00 99
20260505054521 8 0.0 0.0 0.00 0.74 0.00 99
20260505053522 8 0.0 0.0 0.00 0.74 0.00 99
20260505052521 9 0.0 0.0 0.00 0.74 0.00 98
20260505051522 9 0.0 0.0 0.00 0.74 0.00 97
20260505050521 9 0.0 0.0 0.00 0.74 0.00 97
20260505041521 10 0.0 0.0 0.00 0.74 0.00 96
20260505040521 10 0.0 0.0 0.00 0.74 0.00 96
20260505035521 10 0.0 0.0 0.00 0.74 0.74 96
20260505034521 10 0.0 0.0 0.00 0.74 0.74 95
20260505033622 10 0.0 0.0 0.00 0.74 0.74 95
20260505032521 10 0.0 0.0 0.00 0.74 0.74 94
20260505031541 10 0.0 0.0 0.00 0.74 0.74 92
20260505030521 10 0.0 0.0 0.00 0.74 0.74 91
20260505025521 11 0.0 0.0 0.00 0.74 0.74 90
20260505024521 11 0.0 0.0 0.00 0.74 0.74 88
20260505023521 11 0.0 0.0 0.00 0.74 0.74 87
20260505022521 11 0.0 0.0 0.00 0.74 0.74 87
20260505021521 12 0.0 0.0 0.00 0.74 0.74 86
20260505020541 12 0.0 0.0 0.00 0.74 0.74 85
20260505015521 12 359 0.0 1.6 0.00 0.74 0.74 84
20260505014541 12 257 0.0 0.0 0.00 0.74 0.74 83
20260505013542 12 0.0 0.0 0.00 0.74 0.74 82
20260505012541 12 260 0.0 1.6 0.00 0.74 0.74 81
20260505011521 13 0.0 0.0 0.00 0.74 0.74 80
20260505010521 13 0.0 0.0 0.00 0.74 0.74 79
20260505005521 13 359 0.0 1.6 0.00 0.74 0.74 79
20260505004541 13 359 0.0 1.6 0.00 0.74 0.74 79
20260505003541 13 256 0.0 1.6 0.00 0.74 0.74 79
20260505002522 13 0.0 0.0 0.00 0.74 0.74 78
20260505001521 13 250 0.0 1.6 0.00 0.74 0.74 77
20260505000522 13 0.0 0.0 0.00 0.74 0.74 76
20260504235521 14 247 0.0 3.2 0.00 0.74 0.74 75
20260504234521 14 233 0.0 3.2 0.00 0.74 0.74 75
20260504233521 14 262 0.0 1.6 0.00 0.74 0.74 74
20260504232521 15 239 0.0 3.2 0.00 0.74 0.74 72
20260504231542 15 291 1.6 4.8 0.00 0.74 0.74 70
20260504230521 15 231 1.6 4.8 0.00 0.74 0.74 70
20260504225521 15 223 1.6 4.8 0.00 0.74 0.74 69
20260504224521 15 163 1.6 6.4 0.00 0.74 0.74 68
20260504223521 16 252 1.6 4.8 0.00 0.74 0.74 67
20260504222521 16 259 0.0 3.2 0.00 0.74 0.74 66
20260504221601 16 240 1.6 3.2 0.00 0.74 0.74 66
20260504220521 16 195 3.2 6.4 0.00 0.74 0.74 65
20260504215521 16 248 1.6 3.2 0.00 0.74 0.74 65
20260504214521 16 222 1.6 6.4 0.00 0.74 0.74 66
20260504213521 15 211 1.6 8.0 0.00 0.74 0.74 66
20260504212521 16 211 1.6 6.4 0.00 0.74 0.74 66
20260504211541 16 207 3.2 6.4 0.00 0.74 0.74 66
20260504210521 16 203 3.2 8.0 0.00 0.74 0.74 66
20260504205541 16 213 3.2 6.4 0.00 0.74 0.74 66
20260504204521 16 204 3.2 8.0 0.00 0.74 0.74 66
20260504203521 17 204 1.6 6.4 0.00 0.74 0.74 64
20260504202521 16 248 3.2 6.4 0.00 0.74 0.74 64
20260504201521 16 221 3.2 8.0 0.00 0.74 0.74 66
20260504200521 15 187 4.8 11.3 0.00 0.74 0.74 67
20260504195521 16 240 1.6 8.0 0.00 0.74 0.74 66
20260504194521 16 217 1.6 6.4 0.00 0.74 0.74 65
20260504193521 16 260 3.2 9.7 0.00 0.74 0.74 64
20260504192521 16 193 4.8 12.9 0.00 0.74 0.74 65
20260504191521 15 199 3.2 8.0 0.00 0.74 0.74 68
20260504190521 15 167 4.8 11.3 0.00 0.74 0.74 70
20260504185521 15 168 4.8 9.7 0.00 0.74 0.74 69
20260504184601 15 183 4.8 9.7 0.00 0.74 0.74 70
20260504183541 14 173 4.8 12.9 0.00 0.74 0.74 71
20260504182521 13 238 1.6 4.8 0.00 0.74 0.74 74
20260504181521 13 224 1.6 8.0 0.00 0.74 0.74 74
20260504180521 13 232 1.6 4.8 0.00 0.74 0.74 74
20260504175521 13 262 1.6 3.2 0.00 0.74 0.74 72
20260504174541 12 243 0.0 3.2 0.00 0.74 0.74 75
20260504173521 12 222 0.0 4.8 0.00 0.74 0.74 76
20260504172521 12 200 1.6 4.8 0.00 0.74 0.74 75
20260504171521 12 230 1.6 4.8 0.00 0.74 0.74 77
20260504170521 11 204 3.2 6.4 0.00 0.74 0.74 76
20260504150521 9 234 1.6 4.8 0.00 0.74 0.74 87
20260504140521 5 268 0.0 1.6 0.03 0.74 0.74 97
20260504130521 4 268 1.6 3.2 0.38 0.71 0.71 99
20260504110521 5 0.0 0.0 0.05 0.05 0.05 90
20260504100521 4 0.0 0.0 0.00 0.00 0.00 80
20260504081521 6 257 0.0 1.6 0.00 0.00 0.00 71
20260504080521 6 259 0.0 1.6 0.00 0.00 0.00 70